Terug naar catalogus

METEOR 1-17 DEB

ActiefPO
NORAD 57726·DEBRIS·🇷🇺 Russia

Gelanceerd Apr 24, 1974 vanaf Plesetsk Cosmodrome

Loading…

Volgende Passages (komende 24 uur)

TLE

VersSource: Space-Track

Epoch: Sep 13, 2026, 04:19 UTC

1 57726U 74025M   26256.18030495  .00002449  00000-0  10754-2 0  9994
2 57726  81.2118 197.3745 0019910  39.5975 320.6653 14.23218003157567

Volg METEOR 1-17 DEB in realtime met AllMySat

Download on the App Store